Year,Month,Day,Hour,Minute,Value (Times are PST for temperature in C)
2012,02,27,00,00,-1.10
2012,02,27,00,01,-1.10
2012,02,27,00,02,-1.10
2012,02,27,00,03,-1.10
2012,02,27,00,04,-1.20
2012,02,27,00,05,-1.20
2012,02,27,00,06,-1.20
2012,02,27,00,07,-1.20
2012,02,27,00,08,-1.20
2012,02,27,00,09,-1.20
2012,02,27,00,10,-1.30
2012,02,27,00,11,-1.30
2012,02,27,00,12,-1.30
2012,02,27,00,13,-1.30
2012,02,27,00,14,-1.20
2012,02,27,00,15,-1.20
2012,02,27,00,16,-1.20
2012,02,27,00,17,-1.20
2012,02,27,00,18,-1.20
2012,02,27,00,19,-1.20
2012,02,27,00,20,-1.20
2012,02,27,00,21,-1.20
2012,02,27,00,22,-1.20
2012,02,27,00,23,-1.10
2012,02,27,00,24,-1.10
2012,02,27,00,25,-1.10
2012,02,27,00,26,-1.10
2012,02,27,00,27,-1.10
2012,02,27,00,28,-1.10
2012,02,27,00,29,-1.10
2012,02,27,00,30,-1.10
2012,02,27,00,31,-1.20
2012,02,27,00,32,-1.20
2012,02,27,00,33,-1.20
2012,02,27,00,34,-1.20
2012,02,27,00,35,-1.20
2012,02,27,00,36,-1.30
2012,02,27,00,37,-1.30
2012,02,27,00,38,-1.30
2012,02,27,00,39,-1.30
2012,02,27,00,40,-1.40
2012,02,27,00,41,-1.40
2012,02,27,00,42,-1.40
2012,02,27,00,43,-1.50
2012,02,27,00,44,-1.50
2012,02,27,00,45,-1.50
2012,02,27,00,46,-1.60
2012,02,27,00,47,-1.60
2012,02,27,00,48,-1.60
2012,02,27,00,49,-1.60
2012,02,27,00,50,-1.70
2012,02,27,00,51,-1.70
2012,02,27,00,52,-1.70
2012,02,27,00,53,-1.70
2012,02,27,00,54,-1.70
2012,02,27,00,55,-1.80
2012,02,27,00,56,-1.80
2012,02,27,00,57,-1.80
2012,02,27,00,58,-1.80
2012,02,27,00,59,-1.90
2012,02,27,01,00,-1.90
2012,02,27,01,01,-1.90
2012,02,27,01,02,-2.00
2012,02,27,01,03,-2.00
2012,02,27,01,04,-2.10
2012,02,27,01,05,-2.10
2012,02,27,01,06,-2.10
2012,02,27,01,07,-2.20
2012,02,27,01,08,-2.20
2012,02,27,01,09,-2.20
2012,02,27,01,10,-2.30
2012,02,27,01,11,-2.30
2012,02,27,01,12,-2.30
2012,02,27,01,13,-2.30
2012,02,27,01,14,-2.40
2012,02,27,01,15,-2.40
2012,02,27,01,16,-2.40
2012,02,27,01,17,-2.40
2012,02,27,01,18,-2.40
2012,02,27,01,19,-2.50
2012,02,27,01,20,-2.60
2012,02,27,01,21,-2.60
2012,02,27,01,22,-2.60
2012,02,27,01,23,-2.70
2012,02,27,01,24,-2.70
2012,02,27,01,25,-2.70
2012,02,27,01,26,-2.70
2012,02,27,01,27,-2.70
2012,02,27,01,28,-2.70
2012,02,27,01,29,-2.70
2012,02,27,01,30,-2.70
2012,02,27,01,31,-2.70
2012,02,27,01,32,-2.80
2012,02,27,01,33,-2.80
2012,02,27,01,34,-2.80
2012,02,27,01,35,-2.80
2012,02,27,01,36,-2.80
2012,02,27,01,37,-2.80
2012,02,27,01,38,-2.80
2012,02,27,01,39,-2.80
2012,02,27,01,40,-2.80
2012,02,27,01,41,-2.80
2012,02,27,01,42,-2.80
2012,02,27,01,43,-2.80
2012,02,27,01,44,-2.80
2012,02,27,01,45,-2.90
2012,02,27,01,46,-2.90
2012,02,27,01,47,-2.90
2012,02,27,01,48,-2.90
2012,02,27,01,49,-2.90
2012,02,27,01,50,-2.90
2012,02,27,01,51,-2.90
2012,02,27,01,52,-2.90
2012,02,27,01,53,-3.00
2012,02,27,01,54,-3.00
2012,02,27,01,55,-3.00
2012,02,27,01,56,-3.10
2012,02,27,01,57,-3.10
2012,02,27,01,58,-3.10
2012,02,27,01,59,-3.10
2012,02,27,02,00,-3.20
2012,02,27,02,01,-3.20
2012,02,27,02,02,-3.20
2012,02,27,02,03,-3.20
2012,02,27,02,04,-3.20
2012,02,27,02,05,-3.20
2012,02,27,02,06,-3.30
2012,02,27,02,07,-3.30
2012,02,27,02,08,-3.30
2012,02,27,02,09,-3.30
2012,02,27,02,10,-3.30
2012,02,27,02,11,-3.30
2012,02,27,02,12,-3.30
2012,02,27,02,13,-3.30
2012,02,27,02,14,-3.30
2012,02,27,02,15,-3.30
2012,02,27,02,16,-3.30
2012,02,27,02,17,-3.30
2012,02,27,02,18,-3.30
2012,02,27,02,19,-3.30
2012,02,27,02,20,-3.30
2012,02,27,02,21,-3.30
2012,02,27,02,22,-3.30
2012,02,27,02,23,-3.40
2012,02,27,02,24,-3.40
2012,02,27,02,25,-3.40
2012,02,27,02,26,-3.40
2012,02,27,02,27,-3.40
2012,02,27,02,28,-3.40
2012,02,27,02,29,-3.40
2012,02,27,02,30,-3.40
2012,02,27,02,31,-3.40
2012,02,27,02,32,-3.40
2012,02,27,02,33,-3.40
2012,02,27,02,34,-3.40
2012,02,27,02,35,-3.40
2012,02,27,02,36,-3.50
2012,02,27,02,37,-3.50
2012,02,27,02,38,-3.50
2012,02,27,02,39,-3.50
2012,02,27,02,40,-3.50
2012,02,27,02,41,-3.50
2012,02,27,02,42,-3.50
2012,02,27,02,43,-3.60
2012,02,27,02,44,-3.60
2012,02,27,02,45,-3.60
2012,02,27,02,46,-3.60
2012,02,27,02,47,-3.60
2012,02,27,02,48,-3.60
2012,02,27,02,49,-3.60
2012,02,27,02,50,-3.60
2012,02,27,02,51,-3.60
2012,02,27,02,52,-3.60
2012,02,27,02,53,-3.60
2012,02,27,02,54,-3.60
2012,02,27,02,55,-3.60
2012,02,27,02,56,-3.60
2012,02,27,02,57,-3.60
2012,02,27,02,58,-3.70
2012,02,27,02,59,-3.70
2012,02,27,03,00,-3.70
2012,02,27,03,01,-3.70
2012,02,27,03,02,-3.70
2012,02,27,03,03,-3.70
2012,02,27,03,04,-3.70
2012,02,27,03,05,-3.70
2012,02,27,03,06,-3.70
2012,02,27,03,07,-3.70
2012,02,27,03,08,-3.80
2012,02,27,03,09,-3.80
2012,02,27,03,10,-3.80
2012,02,27,03,11,-3.80
2012,02,27,03,12,-3.80
2012,02,27,03,13,-3.80
2012,02,27,03,14,-3.80
2012,02,27,03,15,-3.80
2012,02,27,03,16,-3.80
2012,02,27,03,17,-3.80
2012,02,27,03,18,-3.80
2012,02,27,03,19,-3.80
2012,02,27,03,20,-3.80
2012,02,27,03,21,-3.80
2012,02,27,03,22,-3.70
2012,02,27,03,23,-3.70
2012,02,27,03,24,-3.70
2012,02,27,03,25,-3.70
2012,02,27,03,26,-3.70
2012,02,27,03,27,-3.70
2012,02,27,03,28,-3.70
2012,02,27,03,29,-3.70
2012,02,27,03,30,-3.70
2012,02,27,03,31,-3.70
2012,02,27,03,32,-3.70
2012,02,27,03,33,-3.70
2012,02,27,03,34,-3.70
2012,02,27,03,35,-3.70
2012,02,27,03,36,-3.70
2012,02,27,03,37,-3.70
2012,02,27,03,38,-3.80
2012,02,27,03,39,-3.80
2012,02,27,03,40,-3.80
2012,02,27,03,41,-3.80
2012,02,27,03,42,-3.80
2012,02,27,03,43,-3.80
2012,02,27,03,44,-3.80
2012,02,27,03,45,-3.80
2012,02,27,03,46,-3.90
2012,02,27,03,47,-3.90
2012,02,27,03,48,-3.90
2012,02,27,03,49,-3.90
2012,02,27,03,50,-4.00
2012,02,27,03,51,-4.00
2012,02,27,03,52,-4.00
2012,02,27,03,53,-4.00
2012,02,27,03,54,-3.90
2012,02,27,03,55,-3.90
2012,02,27,03,56,-3.90
2012,02,27,03,57,-4.00
2012,02,27,03,58,-4.00
2012,02,27,03,59,-4.00
2012,02,27,04,00,-4.00
2012,02,27,04,01,-4.00
2012,02,27,04,02,-4.00
2012,02,27,04,03,-4.00
2012,02,27,04,04,-4.10
2012,02,27,04,05,-4.10
2012,02,27,04,06,-4.10
2012,02,27,04,07,-4.10
2012,02,27,04,08,-4.10
2012,02,27,04,09,-4.10
2012,02,27,04,10,-4.10
2012,02,27,04,11,-4.10
2012,02,27,04,12,-4.10
2012,02,27,04,13,-4.10
2012,02,27,04,14,-4.10
2012,02,27,04,15,-4.20
2012,02,27,04,16,-4.20
2012,02,27,04,17,-4.20
2012,02,27,04,18,-4.20
2012,02,27,04,19,-4.20
2012,02,27,04,20,-4.20
2012,02,27,04,21,-4.20
2012,02,27,04,22,-4.30
2012,02,27,04,23,-4.30
2012,02,27,04,24,-4.30
2012,02,27,04,25,-4.30
2012,02,27,04,26,-4.30
2012,02,27,04,27,-4.40
2012,02,27,04,28,-4.40
2012,02,27,04,29,-4.40
2012,02,27,04,30,-4.40
2012,02,27,04,31,-4.50
2012,02,27,04,32,-4.50
2012,02,27,04,33,-4.50
2012,02,27,04,34,-4.50
2012,02,27,04,35,-4.60
2012,02,27,04,36,-4.60
2012,02,27,04,37,-4.60
2012,02,27,04,38,-4.60
2012,02,27,04,39,-4.60
2012,02,27,04,40,-4.60
2012,02,27,04,41,-4.60
2012,02,27,04,42,-4.60
2012,02,27,04,43,-4.60
2012,02,27,04,44,-4.60
2012,02,27,04,45,-4.60
2012,02,27,04,46,-4.60
2012,02,27,04,47,-4.60
2012,02,27,04,48,-4.70
2012,02,27,04,49,-4.70
2012,02,27,04,50,-4.70
2012,02,27,04,51,-4.70
2012,02,27,04,52,-4.70
2012,02,27,04,53,-4.70
2012,02,27,04,54,-4.70
2012,02,27,04,55,-4.70
2012,02,27,04,56,-4.70
2012,02,27,04,57,-4.60
2012,02,27,04,58,-4.60
2012,02,27,04,59,-4.60
2012,02,27,05,00,-4.60
2012,02,27,05,01,-4.60
2012,02,27,05,02,-4.60
2012,02,27,05,03,-4.50
2012,02,27,05,04,-4.50
2012,02,27,05,05,-4.50
2012,02,27,05,06,-4.50
2012,02,27,05,07,-4.50
2012,02,27,05,08,-4.50
2012,02,27,05,09,-4.50
2012,02,27,05,10,-4.50
2012,02,27,05,11,-4.50
2012,02,27,05,12,-4.40
2012,02,27,05,13,-4.40
2012,02,27,05,14,-4.30
2012,02,27,05,15,-4.30
2012,02,27,05,16,-4.30
2012,02,27,05,17,-4.30
2012,02,27,05,18,-4.20
2012,02,27,05,19,-4.20
2012,02,27,05,20,-4.20
2012,02,27,05,21,-4.20
2012,02,27,05,22,-4.20
2012,02,27,05,23,-4.20
2012,02,27,05,24,-4.20
2012,02,27,05,25,-4.30
2012,02,27,05,26,-4.30
2012,02,27,05,27,-4.30
2012,02,27,05,28,-4.30
2012,02,27,05,29,-4.30
2012,02,27,05,30,-4.30
2012,02,27,05,31,-4.40
2012,02,27,05,32,-4.40
2012,02,27,05,33,-4.40
2012,02,27,05,34,-4.40
2012,02,27,05,35,-4.40
2012,02,27,05,36,-4.40
2012,02,27,05,37,-4.40
2012,02,27,05,38,-4.40
2012,02,27,05,39,-4.30
2012,02,27,05,40,-4.40
2012,02,27,05,41,-4.40
2012,02,27,05,42,-4.40
2012,02,27,05,43,-4.40
2012,02,27,05,44,-4.40
2012,02,27,05,45,-4.40
2012,02,27,05,46,-4.40
2012,02,27,05,47,-4.40
2012,02,27,05,48,-4.40
2012,02,27,05,49,-4.40
2012,02,27,05,50,-4.40
2012,02,27,05,51,-4.50
2012,02,27,05,52,-4.50
2012,02,27,05,53,-4.50
2012,02,27,05,54,-4.50
2012,02,27,05,55,-4.50
2012,02,27,05,56,-4.60
2012,02,27,05,57,-4.60
2012,02,27,05,58,-4.60
2012,02,27,05,59,-4.60
2012,02,27,06,00,-4.60
2012,02,27,06,01,-4.60
2012,02,27,06,02,-4.60
2012,02,27,06,03,-4.60
2012,02,27,06,04,-4.60
2012,02,27,06,05,-4.60
2012,02,27,06,06,-4.60
2012,02,27,06,07,-4.60
2012,02,27,06,08,-4.60
2012,02,27,06,09,-4.70
2012,02,27,06,10,-4.70
2012,02,27,06,11,-4.70
2012,02,27,06,12,-4.70
2012,02,27,06,13,-4.70
2012,02,27,06,14,-4.70
2012,02,27,06,15,-4.70
2012,02,27,06,16,-4.70
2012,02,27,06,17,-4.70
2012,02,27,06,18,-4.70
2012,02,27,06,19,-4.70
2012,02,27,06,20,-4.80
2012,02,27,06,21,-4.80
2012,02,27,06,22,-4.80
2012,02,27,06,23,-4.80
2012,02,27,06,24,-4.80
2012,02,27,06,25,-4.80
2012,02,27,06,26,-4.80
2012,02,27,06,27,-4.80
2012,02,27,06,28,-4.80
2012,02,27,06,29,-4.80
2012,02,27,06,30,-4.80
2012,02,27,06,31,-4.80
2012,02,27,06,32,-4.80
2012,02,27,06,33,-4.80
2012,02,27,06,34,-4.80
2012,02,27,06,35,-4.80
2012,02,27,06,36,-4.80
2012,02,27,06,37,-4.80
2012,02,27,06,38,-4.80
2012,02,27,06,39,-4.80
2012,02,27,06,40,-4.80
2012,02,27,06,41,-4.80
2012,02,27,06,42,-4.80
2012,02,27,06,43,-4.80
2012,02,27,06,44,-4.80
2012,02,27,06,45,-4.80
2012,02,27,06,46,-4.90
2012,02,27,06,47,-4.90
2012,02,27,06,48,-4.90
2012,02,27,06,49,-4.90
2012,02,27,06,50,-4.90
2012,02,27,06,51,-4.90
2012,02,27,06,52,-4.90
2012,02,27,06,53,-4.90
2012,02,27,06,54,-4.90
2012,02,27,06,55,-4.90
2012,02,27,06,56,-4.90
2012,02,27,06,57,-4.90
2012,02,27,06,58,-4.90
2012,02,27,06,59,-4.80
2012,02,27,07,00,-4.80
2012,02,27,07,01,-4.80
2012,02,27,07,02,-4.80
2012,02,27,07,03,-4.90
2012,02,27,07,04,-4.90
2012,02,27,07,05,-4.90
2012,02,27,07,06,-4.90
2012,02,27,07,07,-4.90
2012,02,27,07,08,-4.90
2012,02,27,07,09,-4.90
2012,02,27,07,10,-4.90
2012,02,27,07,11,-4.90
2012,02,27,07,12,-4.90
2012,02,27,07,13,-4.90
2012,02,27,07,14,-4.90
2012,02,27,07,15,-5.00
2012,02,27,07,16,-5.00
2012,02,27,07,17,-5.00
2012,02,27,07,18,-5.00
2012,02,27,07,19,-5.00
2012,02,27,07,20,-5.00
2012,02,27,07,21,-5.00
2012,02,27,07,22,-5.00
2012,02,27,07,23,-5.00
2012,02,27,07,24,-5.00
2012,02,27,07,25,-5.00
2012,02,27,07,26,-5.00
2012,02,27,07,27,-5.10
2012,02,27,07,28,-5.00
2012,02,27,07,29,-5.10
2012,02,27,07,30,-5.10
2012,02,27,07,31,-5.10
2012,02,27,07,32,-5.10
2012,02,27,07,33,-5.10
2012,02,27,07,34,-5.10
2012,02,27,07,35,-5.10
2012,02,27,07,36,-5.10
2012,02,27,07,37,-5.10
2012,02,27,07,38,-5.10
2012,02,27,07,39,-5.10
2012,02,27,07,40,-5.00
2012,02,27,07,41,-5.00
2012,02,27,07,42,-5.10
2012,02,27,07,43,-5.00
2012,02,27,07,44,-5.00
2012,02,27,07,45,-5.00
2012,02,27,07,46,-5.00
2012,02,27,07,47,-5.00
2012,02,27,07,48,-5.00
2012,02,27,07,49,-4.90
2012,02,27,07,50,-4.90
2012,02,27,07,51,-4.90
2012,02,27,07,52,-4.80
2012,02,27,07,53,-4.80
2012,02,27,07,54,-4.80
2012,02,27,07,55,-4.80
2012,02,27,07,56,-4.80
2012,02,27,07,57,-4.70
2012,02,27,07,58,-4.70
2012,02,27,07,59,-4.70
2012,02,27,08,00,-4.70
2012,02,27,08,01,-4.60
2012,02,27,08,02,-4.60
2012,02,27,08,03,-4.60
2012,02,27,08,04,-4.50
2012,02,27,08,05,-4.50
2012,02,27,08,06,-4.50
2012,02,27,08,07,-4.50
2012,02,27,08,08,-4.40
2012,02,27,08,09,-4.40
2012,02,27,08,10,-4.40
2012,02,27,08,11,-4.40
2012,02,27,08,12,-4.30
2012,02,27,08,13,-4.30
2012,02,27,08,14,-4.30
2012,02,27,08,15,-4.20
2012,02,27,08,16,-4.20
2012,02,27,08,17,-4.20
2012,02,27,08,18,-4.20
2012,02,27,08,19,-4.10
2012,02,27,08,20,-4.10
2012,02,27,08,21,-4.00
2012,02,27,08,22,-4.00
2012,02,27,08,23,-3.90
2012,02,27,08,24,-3.90
2012,02,27,08,25,-3.90
2012,02,27,08,26,-3.80
2012,02,27,08,27,-3.80
2012,02,27,08,28,-3.80
2012,02,27,08,29,-3.80
2012,02,27,08,30,-3.70
2012,02,27,08,31,-3.70
2012,02,27,08,32,-3.70
2012,02,27,08,33,-3.70
2012,02,27,08,34,-3.70
2012,02,27,08,35,-3.60
2012,02,27,08,36,-3.60
2012,02,27,08,37,-3.60
2012,02,27,08,38,-3.60
2012,02,27,08,39,-3.50
2012,02,27,08,40,-3.50
2012,02,27,08,41,-3.40
2012,02,27,08,42,-3.40
2012,02,27,08,43,-3.40
2012,02,27,08,44,-3.30
2012,02,27,08,45,-3.30
2012,02,27,08,46,-3.30
2012,02,27,08,47,-3.20
2012,02,27,08,48,-3.20
2012,02,27,08,49,-3.20
2012,02,27,08,50,-3.20
2012,02,27,08,51,-3.10
2012,02,27,08,52,-3.10
2012,02,27,08,53,-3.10
2012,02,27,08,54,-3.10
2012,02,27,08,55,-3.00
2012,02,27,08,56,-3.00
2012,02,27,08,57,-2.90
2012,02,27,08,58,-2.90
2012,02,27,08,59,-2.90
2012,02,27,09,00,-2.90
2012,02,27,09,01,-2.80
2012,02,27,09,02,-2.80
2012,02,27,09,03,-2.80
2012,02,27,09,04,-2.80
2012,02,27,09,05,-2.80
2012,02,27,09,06,-2.80
2012,02,27,09,07,-2.80
2012,02,27,09,08,-2.80
2012,02,27,09,09,-2.80
2012,02,27,09,10,-2.70
2012,02,27,09,11,-2.70
2012,02,27,09,12,-2.70
2012,02,27,09,13,-2.70
2012,02,27,09,14,-2.70
2012,02,27,09,15,-2.70
2012,02,27,09,16,-2.60
2012,02,27,09,17,-2.60
2012,02,27,09,18,-2.60
2012,02,27,09,19,-2.50
2012,02,27,09,20,-2.50
2012,02,27,09,21,-2.40
2012,02,27,09,22,-2.40
2012,02,27,09,23,-2.30
2012,02,27,09,24,-2.30
2012,02,27,09,25,-2.20
2012,02,27,09,26,-2.20
2012,02,27,09,27,-2.10
2012,02,27,09,28,-2.00
2012,02,27,09,29,-1.90
2012,02,27,09,30,-1.80
2012,02,27,09,31,-1.80
2012,02,27,09,32,-1.70
2012,02,27,09,33,-1.70
2012,02,27,09,34,-1.60
2012,02,27,09,35,-1.60
2012,02,27,09,36,-1.50
2012,02,27,09,37,-1.50
2012,02,27,09,38,-1.40
2012,02,27,09,39,-1.40
2012,02,27,09,40,-1.40
2012,02,27,09,41,-1.30
2012,02,27,09,42,-1.30
2012,02,27,09,43,-1.30
2012,02,27,09,44,-1.30
2012,02,27,09,45,-1.30
2012,02,27,09,46,-1.30
2012,02,27,09,47,-1.30
2012,02,27,09,48,-1.20
2012,02,27,09,49,-1.20
2012,02,27,09,50,-1.20
2012,02,27,09,51,-1.20
2012,02,27,09,52,-1.20
2012,02,27,09,53,-1.20
2012,02,27,09,54,-1.20
2012,02,27,09,55,-1.10
2012,02,27,09,56,-1.10
2012,02,27,09,57,-1.00
2012,02,27,09,58,-1.00
2012,02,27,09,59,-0.90
2012,02,27,10,00,-0.80
2012,02,27,10,01,-0.80
2012,02,27,10,02,-0.70
2012,02,27,10,03,-0.60
2012,02,27,10,04,-0.50
2012,02,27,10,05,-0.40
2012,02,27,10,06,-0.30
2012,02,27,10,07,-0.30
2012,02,27,10,08,-0.20
2012,02,27,10,09,-0.20
2012,02,27,10,10,-0.10
2012,02,27,10,11,-0.10
2012,02,27,10,12,-0.10
2012,02,27,10,13,0.00
2012,02,27,10,14,0.00
2012,02,27,10,15,0.00
2012,02,27,10,16,0.00
2012,02,27,10,17,0.00
2012,02,27,10,18,0.10
2012,02,27,10,19,0.10
2012,02,27,10,20,0.20
2012,02,27,10,21,0.20
2012,02,27,10,22,0.20
2012,02,27,10,23,0.20
2012,02,27,10,24,0.20
2012,02,27,10,25,0.20
2012,02,27,10,26,0.30
2012,02,27,10,27,0.30
2012,02,27,10,28,0.30
2012,02,27,10,29,0.40
2012,02,27,10,30,0.40
2012,02,27,10,31,0.40
2012,02,27,10,32,0.40
2012,02,27,10,33,0.40
2012,02,27,10,34,0.40
2012,02,27,10,35,0.40
2012,02,27,10,36,0.50
2012,02,27,10,37,0.50
2012,02,27,10,38,0.60
2012,02,27,10,39,0.60
2012,02,27,10,40,0.60
2012,02,27,10,41,0.60
2012,02,27,10,42,0.70
2012,02,27,10,43,0.70
2012,02,27,10,44,0.70
2012,02,27,10,45,0.70
2012,02,27,10,46,0.70
2012,02,27,10,47,0.70
2012,02,27,10,48,0.70
2012,02,27,10,49,0.70
2012,02,27,10,50,0.70
2012,02,27,10,51,0.60
2012,02,27,10,52,0.60
2012,02,27,10,53,0.60
2012,02,27,10,54,0.60
2012,02,27,10,55,0.70
2012,02,27,10,56,0.70
2012,02,27,10,57,0.70
2012,02,27,10,58,0.80
2012,02,27,10,59,0.80
2012,02,27,11,00,0.90
2012,02,27,11,01,1.00
2012,02,27,11,02,1.10
2012,02,27,11,03,1.20
2012,02,27,11,04,1.20
2012,02,27,11,05,1.20
2012,02,27,11,06,1.30
2012,02,27,11,07,1.30
2012,02,27,11,08,1.30
2012,02,27,11,09,1.30
2012,02,27,11,10,1.30
2012,02,27,11,11,1.30
2012,02,27,11,12,1.30
2012,02,27,11,13,1.30
2012,02,27,11,14,1.30
2012,02,27,11,15,1.30
2012,02,27,11,16,1.30
2012,02,27,11,17,1.40
2012,02,27,11,18,1.50
2012,02,27,11,19,1.60
2012,02,27,11,20,1.70
2012,02,27,11,21,1.80
2012,02,27,11,22,1.90
2012,02,27,11,23,2.00
2012,02,27,11,24,2.00
2012,02,27,11,25,2.00
2012,02,27,11,26,1.90
2012,02,27,11,27,1.80
2012,02,27,11,28,1.80
2012,02,27,11,29,1.80
2012,02,27,11,30,1.70
2012,02,27,11,31,1.70
2012,02,27,11,32,1.70
2012,02,27,11,33,1.80
2012,02,27,11,34,1.80
2012,02,27,11,35,1.80
2012,02,27,11,36,2.00
2012,02,27,11,37,2.00
2012,02,27,11,38,2.10
2012,02,27,11,39,2.10
2012,02,27,11,40,2.20
2012,02,27,11,41,2.20
2012,02,27,11,42,2.20
2012,02,27,11,43,2.30
2012,02,27,11,44,2.30
2012,02,27,11,45,2.30
2012,02,27,11,46,2.30
2012,02,27,11,47,2.30
2012,02,27,11,48,2.20
2012,02,27,11,49,2.20
2012,02,27,11,50,2.20
2012,02,27,11,51,2.10
2012,02,27,11,52,2.10
2012,02,27,11,53,2.10
2012,02,27,11,54,2.10
2012,02,27,11,55,2.10
2012,02,27,11,56,2.20
2012,02,27,11,57,2.20
2012,02,27,11,58,2.20
2012,02,27,11,59,2.20
2012,02,27,12,00,2.10
2012,02,27,12,01,2.00
2012,02,27,12,02,2.00
2012,02,27,12,03,2.00
2012,02,27,12,04,1.90
2012,02,27,12,05,1.90
2012,02,27,12,06,1.90
2012,02,27,12,07,1.90
2012,02,27,12,08,2.00
2012,02,27,12,09,2.00
2012,02,27,12,10,2.00
2012,02,27,12,11,2.10
2012,02,27,12,12,2.10
2012,02,27,12,13,2.10
2012,02,27,12,14,2.20
2012,02,27,12,15,2.30
2012,02,27,12,16,2.40
2012,02,27,12,17,2.40
2012,02,27,12,18,2.40
2012,02,27,12,19,2.40
2012,02,27,12,20,2.40
2012,02,27,12,21,2.40
2012,02,27,12,22,2.40
2012,02,27,12,23,2.40
2012,02,27,12,24,2.30
2012,02,27,12,25,2.30
2012,02,27,12,26,2.30
2012,02,27,12,27,2.30
2012,02,27,12,28,2.30
2012,02,27,12,29,2.30
2012,02,27,12,30,2.30
2012,02,27,12,31,2.30
2012,02,27,12,32,2.30
2012,02,27,12,33,2.30
2012,02,27,12,34,2.30
2012,02,27,12,35,2.30
2012,02,27,12,36,2.30
2012,02,27,12,37,2.30
2012,02,27,12,38,2.30
2012,02,27,12,39,2.30
2012,02,27,12,40,2.30
2012,02,27,12,41,2.30
2012,02,27,12,42,2.30
2012,02,27,12,43,2.20
2012,02,27,12,44,2.20
2012,02,27,12,45,2.20
2012,02,27,12,46,2.20
2012,02,27,12,47,2.20
2012,02,27,12,48,2.30
2012,02,27,12,49,2.30
2012,02,27,12,50,2.40
2012,02,27,12,51,2.40
2012,02,27,12,52,2.50
2012,02,27,12,53,2.50
2012,02,27,12,54,2.60
2012,02,27,12,55,2.60
2012,02,27,12,56,2.60
2012,02,27,12,57,2.70
2012,02,27,12,58,2.70
2012,02,27,12,59,2.70
2012,02,27,13,00,2.70
2012,02,27,13,01,2.70
2012,02,27,13,02,2.70
2012,02,27,13,03,2.80
2012,02,27,13,04,2.80
2012,02,27,13,05,2.90
2012,02,27,13,06,3.00
2012,02,27,13,07,3.10
2012,02,27,13,08,3.10
2012,02,27,13,09,3.10
2012,02,27,13,10,3.00
2012,02,27,13,11,2.90
2012,02,27,13,12,2.90
2012,02,27,13,13,2.80
2012,02,27,13,14,2.90
2012,02,27,13,15,3.00
2012,02,27,13,16,3.00
2012,02,27,13,17,3.10
2012,02,27,13,18,3.20
2012,02,27,13,19,3.20
2012,02,27,13,20,3.30
2012,02,27,13,21,3.40
2012,02,27,13,22,3.40
2012,02,27,13,23,3.40
2012,02,27,13,24,3.40
2012,02,27,13,25,3.40
2012,02,27,13,26,3.40
2012,02,27,13,27,3.40
2012,02,27,13,28,3.40
2012,02,27,13,29,3.40
2012,02,27,13,30,3.50
2012,02,27,13,31,3.50
2012,02,27,13,32,3.50
2012,02,27,13,33,3.50
2012,02,27,13,34,3.50
2012,02,27,13,35,3.60
2012,02,27,13,36,3.60
2012,02,27,13,37,3.70
2012,02,27,13,38,3.70
2012,02,27,13,39,3.70
2012,02,27,13,40,3.80
2012,02,27,13,41,3.80
2012,02,27,13,42,3.90
2012,02,27,13,43,3.90
2012,02,27,13,44,3.80
2012,02,27,13,45,3.80
2012,02,27,13,46,3.80
2012,02,27,13,47,3.90
2012,02,27,13,48,3.90
2012,02,27,13,49,4.00
2012,02,27,13,50,4.00
2012,02,27,13,51,4.10
2012,02,27,13,52,4.10
2012,02,27,13,53,4.10
2012,02,27,13,54,4.00
2012,02,27,13,55,4.10
2012,02,27,13,56,4.10
2012,02,27,13,57,4.10
2012,02,27,13,58,4.10
2012,02,27,13,59,4.20
2012,02,27,14,00,4.20
2012,02,27,14,01,4.30
2012,02,27,14,02,4.40
2012,02,27,14,03,4.50
2012,02,27,14,04,4.50
2012,02,27,14,05,4.60
2012,02,27,14,06,4.60
2012,02,27,14,07,4.60
2012,02,27,14,08,4.60
2012,02,27,14,09,4.60
2012,02,27,14,10,4.60
2012,02,27,14,11,4.60
2012,02,27,14,12,4.50
2012,02,27,14,13,4.50
2012,02,27,14,14,4.50
2012,02,27,14,15,4.40
2012,02,27,14,16,4.40
2012,02,27,14,17,4.40
2012,02,27,14,18,4.30
2012,02,27,14,19,4.30
2012,02,27,14,20,4.30
2012,02,27,14,21,4.30
2012,02,27,14,22,4.30
2012,02,27,14,23,4.30
2012,02,27,14,24,4.40
2012,02,27,14,25,4.40
2012,02,27,14,26,4.40
2012,02,27,14,27,4.40
2012,02,27,14,28,4.40
2012,02,27,14,29,4.30
2012,02,27,14,30,4.30
2012,02,27,14,31,4.30
2012,02,27,14,32,4.30
2012,02,27,14,33,4.30
2012,02,27,14,34,4.30
2012,02,27,14,35,4.30
2012,02,27,14,36,4.30
2012,02,27,14,37,4.30
2012,02,27,14,38,4.30
2012,02,27,14,39,4.30
2012,02,27,14,40,4.20
2012,02,27,14,41,4.30
2012,02,27,14,42,4.30
2012,02,27,14,43,4.20
2012,02,27,14,44,4.20
2012,02,27,14,45,4.20
2012,02,27,14,46,4.20
2012,02,27,14,47,4.20
2012,02,27,14,48,4.20
2012,02,27,14,49,4.20
2012,02,27,14,50,4.30
2012,02,27,14,51,4.30
2012,02,27,14,52,4.30
2012,02,27,14,53,4.30
2012,02,27,14,54,4.40
2012,02,27,14,55,4.40
2012,02,27,14,56,4.40
2012,02,27,14,57,4.40
2012,02,27,14,58,4.40
2012,02,27,14,59,4.40
2012,02,27,15,00,4.40
2012,02,27,15,01,4.40
2012,02,27,15,02,4.40
2012,02,27,15,03,4.40
2012,02,27,15,04,4.40
2012,02,27,15,05,4.30
2012,02,27,15,06,4.30
2012,02,27,15,07,4.30
2012,02,27,15,08,4.20
2012,02,27,15,09,4.10
2012,02,27,15,10,4.10
2012,02,27,15,11,4.00
2012,02,27,15,12,4.10
2012,02,27,15,13,4.10
2012,02,27,15,14,4.10
2012,02,27,15,15,4.10
2012,02,27,15,16,4.10
2012,02,27,15,17,4.10
2012,02,27,15,18,4.20
2012,02,27,15,19,4.20
2012,02,27,15,20,4.20
2012,02,27,15,21,4.20
2012,02,27,15,22,4.20
2012,02,27,15,23,4.20
2012,02,27,15,24,4.20
2012,02,27,15,25,4.20
2012,02,27,15,26,4.20
2012,02,27,15,27,4.20
2012,02,27,15,28,4.20
2012,02,27,15,29,4.20
2012,02,27,15,30,4.20
2012,02,27,15,31,4.20
2012,02,27,15,32,4.30
2012,02,27,15,33,4.30
2012,02,27,15,34,4.40
2012,02,27,15,35,4.30
2012,02,27,15,36,4.30
2012,02,27,15,37,4.30
2012,02,27,15,38,4.30
2012,02,27,15,39,4.30
2012,02,27,15,40,4.20
2012,02,27,15,41,4.20
2012,02,27,15,42,4.20
2012,02,27,15,43,4.10
2012,02,27,15,44,4.10
2012,02,27,15,45,4.10
2012,02,27,15,46,4.00
2012,02,27,15,47,4.00
2012,02,27,15,48,3.90
2012,02,27,15,49,3.90
2012,02,27,15,50,3.90
2012,02,27,15,51,3.90
2012,02,27,15,52,3.90
2012,02,27,15,53,3.90
2012,02,27,15,54,3.80
2012,02,27,15,55,3.80
2012,02,27,15,56,3.80
2012,02,27,15,57,3.70
2012,02,27,15,58,3.70
2012,02,27,15,59,3.70
2012,02,27,16,00,3.70
2012,02,27,16,01,3.70
2012,02,27,16,02,3.70
2012,02,27,16,03,3.70
2012,02,27,16,04,3.70
2012,02,27,16,05,3.70
2012,02,27,16,06,3.80
2012,02,27,16,07,3.80
2012,02,27,16,08,3.90
2012,02,27,16,09,3.90
2012,02,27,16,10,3.90
2012,02,27,16,11,4.00
2012,02,27,16,12,4.00
2012,02,27,16,13,4.00
2012,02,27,16,14,4.00
2012,02,27,16,15,4.00
2012,02,27,16,16,4.00
2012,02,27,16,17,3.90
2012,02,27,16,18,3.90
2012,02,27,16,19,3.90
2012,02,27,16,20,3.80
2012,02,27,16,21,3.80
2012,02,27,16,22,3.80
2012,02,27,16,23,3.80
2012,02,27,16,24,3.70
2012,02,27,16,25,3.70
2012,02,27,16,26,3.70
2012,02,27,16,27,3.70
2012,02,27,16,28,3.70
2012,02,27,16,29,3.70
2012,02,27,16,30,3.60
2012,02,27,16,31,3.60
2012,02,27,16,32,3.60
2012,02,27,16,33,3.50
2012,02,27,16,34,3.50
2012,02,27,16,35,3.40
2012,02,27,16,36,3.30
2012,02,27,16,37,3.30
2012,02,27,16,38,3.30
2012,02,27,16,39,3.30
2012,02,27,16,40,3.30
2012,02,27,16,41,3.20
2012,02,27,16,42,3.20
2012,02,27,16,43,3.20
2012,02,27,16,44,3.10
2012,02,27,16,45,3.10
2012,02,27,16,46,3.10
2012,02,27,16,47,3.00
2012,02,27,16,48,3.00
2012,02,27,16,49,2.90
2012,02,27,16,50,2.90
2012,02,27,16,51,2.90
2012,02,27,16,52,2.90
2012,02,27,16,53,2.80
2012,02,27,16,54,2.80
2012,02,27,16,55,2.80
2012,02,27,16,56,2.80
2012,02,27,16,57,2.70
2012,02,27,16,58,2.70
2012,02,27,16,59,2.70
2012,02,27,17,00,2.70
2012,02,27,17,01,2.70
2012,02,27,17,02,2.70
2012,02,27,17,03,2.60
2012,02,27,17,04,2.60
2012,02,27,17,05,2.60
2012,02,27,17,06,2.50
2012,02,27,17,07,2.50
2012,02,27,17,08,2.40
2012,02,27,17,09,2.40
2012,02,27,17,10,2.30
2012,02,27,17,11,2.30
2012,02,27,17,12,2.30
2012,02,27,17,13,2.20
2012,02,27,17,14,2.20
2012,02,27,17,15,2.10
2012,02,27,17,16,2.10
2012,02,27,17,17,2.10
2012,02,27,17,18,2.00
2012,02,27,17,19,2.00
2012,02,27,17,20,2.00
2012,02,27,17,21,1.90
2012,02,27,17,22,1.90
2012,02,27,17,23,1.90
2012,02,27,17,24,1.80
2012,02,27,17,25,1.80
2012,02,27,17,26,1.80
2012,02,27,17,27,1.70
2012,02,27,17,28,1.70
2012,02,27,17,29,1.70
2012,02,27,17,30,1.60
2012,02,27,17,31,1.60
2012,02,27,17,32,1.50
2012,02,27,17,33,1.40
2012,02,27,17,34,1.40
2012,02,27,17,35,1.30
2012,02,27,17,36,1.30
2012,02,27,17,37,1.30
2012,02,27,17,38,1.30